Showing default

ORESAT0.5, 60525

Orbit data source: Space-Track

ORESAT0.5, 60525 is a payload satellite owned by Portland State (US) in SSO that was launched on Fri, 16 Aug 2024 UTC via an FALCON 9 launch vehicle from the Air Force Western Test Range (AFWTR). Payload-class satellites include a variety of spacecraft equipped with specific instruments for various scientific and technological missions. These include communications satellites like Starlink; space stations such as the ISS; scientific satellites like the Hubble; Earth observation satellites from companies like Planet Labs, Umbra, and HawkEye 360; GPS; miniature CubeSats for education and research; and military/defense satellites.

Loading next visibility...
Identifier
60525, 2024-149BK
Orbit
SSO
Country
Flag of USUS
Related business
Manufacturer
Portland State
Mission
Operational Amateur Technology
Bus & Motor
CUBESAT 1.5U, Unknown motor
Mass
2 kg wet, 2 kg dry
Launch date (UTC)
2024-08-16 (1 year ago)
Launch vehicle
FALCON 9
Launch site
Air Force Western Test Range (AFWTR)
Object type
Payload
Rocket body
Debris
Shape & HBR
Box + 1 Ant, 0.3 m
Radar Cross Section
0.040 m², Small (<0.1 m²)

Expand to show TLE details & history
Last TLE update: 18 hours ago

TLE from 18 hours ago
0 ORESAT0.5
1 60525U 24149BK  25286.91239161  .00020562  00000-0  61788-3 0  9991
2 60525  97.3945   5.7893 0007803  88.6823 271.5314 15.34411895 64578
Epoch: 2025-10-13T21:53Z
TLE epoch observation values (Epoch: 2025-10-13T21:53:50.635Z)
Latitude
0.00002°
Longitude
14.61995°
Altitude
465.64 km
Speed
7.634 km/s
True Right ascension
00h 23m 09s
True Declination
0° 00' 00"
Sunlit
Object was in full shadow at epoch
Visualization orbit readout
Latitude
Unknown
Longitude
Unknown
Altitude
Unknown
Speed
Unknown
Apparent Right ascension
Unknown
Apparent Declination
Unknown
Sunlit
N/A
Visualization observer readout
Local Sidereal Time
10:32:53
Azimuth
Unknown
Elevation
Unknown
Doppler factor
Unknown
Orbital elements
Apogee altitude
464.95 km
Perigee altitude
454.279 km
Semi-major axis
6,837.751 km
Eccentricity
0.00078
Inclination
97.3945°
RAAN
5.7893°
Arg. of periapsis
88.6823°
True anomaly
271.44201°
Mean anomaly
271.5314°
Eccentric anomaly
271.48671°
Mean motion
3.8386 °/min
Orbital period
93.78 mins
BSTAR
0.00061788
Loading maneuver chart data...
Computing Atmospheric mass density...
Loading historical data...
Loading historical data...
Loading historical data...
Loading historical data...
Loading historical data...
Loading historical data...
Loading historical data...

Documentation

Showing up to 5 results
|